Stations météo

réclame
Mon MeteoGroup
Fehmarn, Allemagne (10055): Température de l'air & dewpoint: 15.01.2019 17:00:00 - 21.01.2019 17:00:00 (CET)Fehmarn, Allemagne (10055): Température de l'air 5cm & Température de l'air -5cm: 15.01.2019 17:00:00 - 21.01.2019 17:00:00 (CET)Fehmarn, Allemagne (10055): Température de l'air -20cm & Température de l'air -100cm: 15.01.2019 17:00:00 - 21.01.2019 17:00:00 (CET)Fehmarn, Allemagne (10055): Vitesse du vent & gusts: 15.01.2019 17:00:00 - 21.01.2019 17:00:00 (CET)Fehmarn, Allemagne (10055): Direction du vent: 15.01.2019 17:00:00 - 21.01.2019 17:00:00 (CET)Fehmarn, Allemagne (10055): reduced air pressure: 15.01.2019 17:00:00 - 21.01.2019 17:00:00 (CET)Fehmarn, Allemagne (10055): visibility: 15.01.2019 17:00:00 - 21.01.2019 17:00:00 (CET)Fehmarn, Allemagne (10055): Ensoleillement: 15.01.2019 17:00:00 - 21.01.2019 17:00:00 (CET)Fehmarn, Allemagne (10055): Quantités de précipitations: 15.01.2019 17:00:00 - 21.01.2019 17:00:00 (CET)
Date & Time tt [°C] td [°C] tt 5cm [°C] tt -5cm [°C] tt -20cm [°C] tt -100cm [°C] ff [km/h] ff [knt] fx [km/h] fx [knt] dd ppp [hPa] vv [km] sd [min] rr [mm]
21.01.2019 17:00:00 1,7 1,0 0,7 -0,3 0,8 5,6 34 18 48 26 WSW 1015,7 3,4 0 0,1
21.01.2019 16:00:00 1,3 0,3 0,4 -0,3 0,8 5,6 29 16 45 24 WSW 1015,9 4,0 0 0,0
21.01.2019 15:00:00 1,2 0,2 0,7 -0,3 0,8 5,6 32 17 48 26 WSW 1016,3 3,6 7 0,0
21.01.2019 14:00:00 1,0 -0,8 0,7 -0,4 0,8 5,6 29 16 47 25 WSW 1016,9 5 59 0,0
21.01.2019 13:00:00 0,9 -1,1 0,6 -0,4 0,8 5,6 35 19 46 25 WSW 1017,4 6 34 0,0
21.01.2019 12:00:00 0,4 -1,4 -0,1 -0,5 0,8 5,6 29 16 44 24 WSW 1017,9 6 6 0,0
21.01.2019 11:00:00 -0,7 -2,3 -1,0 -0,6 0,8 5,6 27 15 42 23 SW 1018,7 4,0 0 0,0
21.01.2019 10:00:00 -1,2 -4,0 -2,0 -0,7 0,9 5,6 22 12 44 24 SW 1019,0 5 0 0,0
21.01.2019 09:00:00 -1,5 -4,0 -2,3 -0,8 0,9 5,7 25 13 40 21 SW 1019,5 6 0 0,0
21.01.2019 08:00:00 -1,9 -4,2 -2,6 -0,8 0,9 5,7 27 15 40 21 SW 1019,7 6 0 0,0
21.01.2019 07:00:00 -2,2 -3,8 -2,7 -0,8 1,0 5,7 19 10 37 20 SW 1019,9 4,8 0 0,0
21.01.2019 06:00:00 -2,5 -4,1 -3,5 -0,8 1,0 5,7 21 11 34 19 SW 1020,4 6 0 0,0
21.01.2019 05:00:00 -2,2 -3,5 -3,2 -0,7 1,0 5,7 22 12 31 17 SW 1020,8 5 0 0,0
21.01.2019 04:00:00 -2,1 -3,4 -3,0 -0,4 1,0 5,7 19 10 27 14 SW 1021,3 6 0 0,0
21.01.2019 03:00:00 -1,4 -2,7 -2,2 -0,3 1,1 5,7 18 10 25 13 SW 1021,8 8 0 0,0
21.01.2019 02:00:00 -1,0 -1,9 -1,7 -0,3 1,1 5,7 14 7 23 12 SW 1021,9 8 0 0,0
21.01.2019 01:00:00 -0,5 -1,0 -1,2 -0,2 1,1 5,7 14 8 21 12 SW 1022,2 6 0 0,0
21.01.2019 00:00:00 -0,8 -1,0 -1,3 -0,2 1,1 5,7 9 5 16 9 SW 1022,4 3,7 0 0,0
20.01.2019 23:00:00 -1,5 -1,7 -2,3 -0,2 1,1 5,7 9 5 15 8 SSW 1022,4 5 0 0,0
20.01.2019 22:00:00 -2,4 -2,5 -3,2 -0,1 1,2 5,8 8 4 13 7 SSW 1022,2 4,9 0 0,0
20.01.2019 21:00:00 -2,2 -2,3 -2,2 0,0 1,2 5,8 9 5 14 8 S 1021,9 1,6 0 0,0
20.01.2019 20:00:00 -2,4 -2,5 -2,1 0,0 1,2 5,8 8 4 14 7 S 1021,7 0,3 0 0,0
20.01.2019 19:00:00 -2,4 -2,6 -2,1 0,0 1,2 5,8 8 4 14 7 SSW 1021,4 0,2 0 0,0
20.01.2019 18:00:00 -1,9 -2,0 -1,6 -0,1 1,2 5,8 7 4 16 9 SSW 1021,1 0,7 0 0,0
20.01.2019 17:00:00 -1,8 -2,0 -1,6 -0,1 1,2 5,8 9 5 14 8 S 1020,9 0,3 0 0,0
20.01.2019 16:00:00 -1,9 -2,1 -1,5 -0,1 1,2 5,8 7 4 14 7 SSW 1020,8 0,4 0 0,0
20.01.2019 15:00:00 -1,4 -1,5 -0,9 -0,1 1,2 5,8 8 4 15 8 SSW 1020,6 3,3 0 0,0
20.01.2019 14:00:00 -1,3 -1,4 -0,7 -0,2 1,2 5,8 6 4 13 7 S 1020,6 2,8 0 0,0
20.01.2019 13:00:00 -1,4 -1,5 -0,9 -0,2 1,2 5,8 8 4 13 7 S 1020,6 3,2 0 0,0
20.01.2019 12:00:00 -1,4 -1,4 -0,9 -0,2 1,2 5,8 7 4 13 7 S 1020,5 2,3 0 0,0
20.01.2019 11:00:00 -2,3 -2,4 -1,7 -0,2 1,3 5,9 6 3 9 5 S 1020,4 0,5 0 0,0
20.01.2019 10:00:00 -2,5 -2,5 -1,9 -0,2 1,3 5,9 3 2 10 5 SSE 1020,1 0,2 0 0,0
20.01.2019 09:00:00 -2,4 -2,5 -2,1 -0,3 1,3 5,9 8 5 13 7 S 1019,4 0,1 0 0,0
20.01.2019 08:00:00 -2,3 -2,4 -2,1 -0,3 1,4 5,9 7 4 13 7 S 1018,9 0,2 0 0,0
20.01.2019 07:00:00 -2,2 -2,2 -2,1 -0,3 1,4 5,9 6 4 15 8 S 1018,6 0,2 0 0,0
20.01.2019 06:00:00 -1,9 -2,0 -2,0 -0,3 1,5 5,9 10 5 16 8 S 1018,4 0,1 0 0,0
20.01.2019 05:00:00 -2,0 -2,2 -2,0 -0,3 1,5 5,9 11 6 14 8 SSE 1018,5 0,1 0 0,0
20.01.2019 04:00:00 -1,3 -1,8 -3,0 -0,2 1,6 5,9 9 5 13 7 S 1018,6 3,2 0 0,0
20.01.2019 03:00:00 -1,8 -2,4 -3,2 -0,2 1,6 5,9 10 5 12 6 S 1018,6 2,4 0 0,0
20.01.2019 02:00:00 -1,9 -2,4 -3,6 -0,1 1,7 5,9 8 4 11 6 S 1018,7 2,2 0 0,0
20.01.2019 01:00:00 -1,5 -2,3 -3,1 0,1 1,8 5,9 8 5 14 7 S 1018,7 3,2 0 0,0
20.01.2019 00:00:00 -0,7 -1,8 -2,3 0,2 1,8 5,9 10 5 14 8 S 1018,8 5 0 0,0
19.01.2019 23:00:00 -1,0 -2,5 -2,7 0,3 1,9 5,9 10 5 12 6 S 1018,7 7 0 0,0
19.01.2019 22:00:00 -0,3 -2,3 -2,6 0,3 1,9 6,0 9 5 12 7 S 1018,7 12 0 0,0
19.01.2019 21:00:00 -0,6 -2,1 -2,2 0,4 2,0 6,0 9 5 12 7 SSW 1018,7 15 0 0,0
19.01.2019 20:00:00 -1,5 -1,5 -2,8 0,5 2,1 6,0 8 4 10 5 S 1018,7 3,8 0 0,0
19.01.2019 19:00:00 -2,3 -2,3 -2,6 0,5 2,2 6,0 7 4 10 5 SE 1018,8 0,2 0 0,0
19.01.2019 18:00:00 -2,0 -2,0 -1,8 0,7 2,3 6,0 8 5 11 6 SE 1018,9 0,1 0 0,0
19.01.2019 17:00:00 -0,7 -0,9 -0,6 1,1 2,4 6,0 7 4 12 7 SSE 1018,9 0,1 0 0,0
19.01.2019 16:00:00 0,3 -0,7 -0,9 1,5 2,3 6,0 5 3 8 4 SSE 1018,9 3,4 35 0,0
19.01.2019 15:00:00 0,6 0,6 0,8 2,2 2,3 6,0 5 3 20 11 SW 1019,1 6 3 0,0
19.01.2019 14:00:00 0,6 0,6 1,3 2,2 2,2 6,0 11 6 17 9 WSW 1019,5 1,9 0 0,0
19.01.2019 13:00:00 0,2 0,2 1,1 2,1 2,1 6,0 8 4 14 7 SW 1019,9 0,5 0 0,0
19.01.2019 12:00:00 -0,3 -0,4 0,4 1,8 2,1 6,0 9 5 16 9 S 1020,2 0,3 0 0,0
19.01.2019 11:00:00 0,6 0,5 1,1 1,7 2,0 6,1 8 5 19 11 SW 1020,0 0,5 0 0,0
19.01.2019 10:00:00 0,5 0,5 0,8 1,3 2,0 6,1 9 5 18 10 WSW 1019,9 5 0 0,0
19.01.2019 09:00:00 0,5 0,5 0,6 1,1 2,0 6,1 11 6 20 11 WSW 1019,6 1,3 0 0,0
19.01.2019 08:00:00 0,8 0,6 0,7 1,1 1,9 6,1 12 6 23 12 SW 1019,0 3,5 0 0,0
19.01.2019 07:00:00 1,0 0,8 0,9 1,2 1,9 6,1 16 9 23 12 WSW 1018,8 6 0 0,0
19.01.2019 06:00:00 1,3 1,1 1,2 1,2 1,9 6,1 17 9 27 14 WSW 1018,8 7 0 0,0
19.01.2019 05:00:00 1,4 1,2 1,3 1,1 1,9 6,1 18 10 27 14 WSW 1018,9 2,4 0 0,0
19.01.2019 04:00:00 1,5 1,3 1,2 1,0 1,8 6,1 22 12 31 17 WSW 1018,8 7 0 0,0
19.01.2019 03:00:00 1,7 1,5 1,3 0,9 1,8 6,1 26 14 34 18 W 1018,8 4,4 0 0,0
19.01.2019 02:00:00 1,7 1,4 1,3 0,7 1,8 6,1 27 14 36 20 W 1018,8 3,3 0 0,0
19.01.2019 01:00:00 1,9 1,0 0,6 0,4 1,8 6,1 27 15 35 19 WSW 1018,7 15 0 0,0
19.01.2019 00:00:00 1,9 1,1 0,9 0,5 1,9 6,1 26 14 35 19 WSW 1018,5 13 0 0,0
18.01.2019 23:00:00 2,1 1,0 0,8 0,4 1,9 6,1 25 14 36 19 WSW 1018,3 18 0 0,0
18.01.2019 22:00:00 2,5 1,1 1,0 0,5 1,9 6,1 27 15 35 19 WSW 1017,9 31 0 0,0
18.01.2019 21:00:00 2,9 1,4 1,6 0,5 1,9 6,1 28 15 33 18 W 1017,7 37 0 0,0
18.01.2019 20:00:00 2,9 1,0 1,6 0,4 2,0 6,2 27 14 35 19 W 1017,3 35 0 0,0
18.01.2019 19:00:00 3,4 -0,8 2,2 0,4 2,0 6,2 26 14 36 19 W 1017,2 42 0 0,0
18.01.2019 18:00:00 3,4 -2,3 2,1 0,4 2,1 6,2 27 15 40 21 WNW 1017,0 53 0 0,0
18.01.2019 17:00:00 3,4 -2,8 2,0 0,4 2,1 6,2 35 19 44 24 WNW 1016,6 64 0 0,0
18.01.2019 16:00:00 3,5 -2,4 2,4 0,8 2,1 6,2 38 21 45 24 WNW 1016,1 43 49 0,0
18.01.2019 15:00:00 3,4 -1,6 2,7 1,1 2,1 6,2 36 20 44 24 W 1015,5 10 60 0,0
18.01.2019 14:00:00 3,2 -1,3 2,7 1,3 2,0 6,2 35 19 42 23 WNW 1015,2 11 60 0,0
18.01.2019 13:00:00 3,2 -1,2 2,9 0,4 2,0 6,2 33 18 45 24 W 1015,0 12 60 0,0
18.01.2019 12:00:00 2,7 -0,8 2,5 0,2 2,1 6,2 37 20 47 25 W 1014,8 11 60 0,0
18.01.2019 11:00:00 2,1 -2,3 1,7 0,2 2,1 6,2 40 21 48 26 WSW 1014,4 20 60 0,0
18.01.2019 10:00:00 0,7 -2,5 0,7 0,2 2,2 6,2 21 12 34 19 WSW 1014,2 43 23 0,0
18.01.2019 09:00:00 0,8 -2,0 -0,3 0,2 2,2 6,2 22 12 31 17 WSW 1013,6 57 0 0,0
18.01.2019 08:00:00 1,4 -4,2 -0,6 0,2 2,3 6,2 14 8 24 13 W 1012,8 70 0 0,0
18.01.2019 07:00:00 1,2 -4,7 -0,6 0,3 2,4 6,2 14 8 24 13 NW 1012,7 70 0 0,0
18.01.2019 06:00:00 1,0 -3,2 -0,5 0,4 2,5 6,2 19 11 35 19 NW 1012,1 58 0 0,0
18.01.2019 05:00:00 0,9 -2,4 -0,1 0,4 2,5 6,2 31 17 38 21 NW 1011,3 43 0 0,0
18.01.2019 04:00:00 0,7 -2,8 -0,3 0,5 2,6 6,2 31 17 45 24 NW 1010,5 48 0 0,0
18.01.2019 03:00:00 1,4 -3,0 0,3 0,5 2,7 6,2 26 14 40 22 N 1009,3 56 0 0,0
18.01.2019 02:00:00 1,0 -3,9 -0,3 0,6 2,9 6,2 34 19 57 31 N 1008,0 58 0 0,0
18.01.2019 01:00:00 1,6 -4,3 0,6 0,7 3,0 6,2 46 25 61 33 N 1006,5 51 0 0,0
18.01.2019 00:00:00 1,7 -3,7 0,9 0,9 3,2 6,2 42 23 55 30 NNW 1005,2 47 0 0,0
17.01.2019 23:00:00 2,2 -2,8 1,3 1,0 3,3 6,2 42 23 59 32 NNW 1003,7 42 0 0,0
17.01.2019 22:00:00 2,5 -3,1 1,1 1,3 3,5 6,2 46 25 58 31 N 1002,2 52 0 0,0
17.01.2019 21:00:00 2,0 -2,6 0,8 1,3 3,7 6,2 37 20 47 25 N 1000,8 53 0 0,0
17.01.2019 20:00:00 1,7 -2,4 0,3 1,5 3,9 6,1 36 19 46 25 N 999,3 54 0 0,0
17.01.2019 19:00:00 0,3 -0,6 -0,1 1,6 4,1 6,1 23 13 52 28 NNE 997,8 70 0 0,3
17.01.2019 18:00:00 1,7 -1,4 0,8 2,5 4,2 6,1 38 21 51 28 N 996,9 8 0 0,0
17.01.2019 17:00:00 2,1 0,1 1,6 3,3 4,3 6,1 30 16 54 29 N 995,4 49 0 0,6
17.01.2019 16:00:00 4,1 2,5 3,5 4,1 4,3 6,1 36 19 63 34 WNW 994,0 2,4 0 0,0
17.01.2019 15:00:00 4,8 3,1 4,4 4,5 4,3 6,1 45 25 64 34 WSW 992,9 10 18 0,0
17.01.2019 14:00:00 5,6 2,2 5,6 4,7 4,2 6,1 42 23 67 36 WSW 992,6 33 13 0,0
17.01.2019 13:00:00 5,1 2,5 4,6 4,5 4,1 6,1 41 22 59 32 WSW 992,4 11 2 0,0
17.01.2019 12:00:00 5,3 2,4 5,5 4,6 4,1 6,1 32 17 55 30 WSW 993,0 25 25 0,0
17.01.2019 11:00:00 5,1 2,1 4,7 4,0 4,0 6,1 34 18 53 29 SW 993,4 28 27 0,0
17.01.2019 10:00:00 4,8 2,5 4,3 3,3 4,1 6,1 35 19 56 30 WSW 993,5 30 11 0,0
17.01.2019 09:00:00 4,8 2,8 3,4 3,1 4,1 6,1 31 17 49 26 WSW 993,3 28 0 0,0
17.01.2019 08:00:00 4,7 2,9 3,3 3,1 4,2 6,1 32 18 48 26 WSW 992,9 29 0 0,0
17.01.2019 07:00:00 4,5 2,7 3,0 3,1 4,3 6,1 39 21 53 29 WSW 992,6 33 0 0,0
17.01.2019 06:00:00 4,8 3,2 3,9 3,5 4,4 6,1 37 20 50 27 WSW 992,7 34 0 0,0
17.01.2019 05:00:00 3,9 2,7 3,0 3,7 4,5 6,1 30 16 55 30 WSW 992,9 43 0 0,9
17.01.2019 04:00:00 4,6 3,1 3,8 3,9 4,6 6,1 34 18 47 25 WSW 992,9 48 0 0,0
17.01.2019 03:00:00 4,8 3,7 4,1 4,2 4,6 6,1 36 19 63 34 WSW 993,1 21 0 0,3
17.01.2019 02:00:00 5,1 3,7 4,5 4,3 4,7 6,1 35 19 54 29 WSW 992,9 10 0 0,0
17.01.2019 01:00:00 5,0 3,9 4,5 4,4 4,7 6,1 34 18 54 29 SW 993,1 9 0 0,1
17.01.2019 00:00:00 4,8 4,0 4,4 4,4 4,7 6,1 34 18 48 26 SW 994,0 5 0 0,2
16.01.2019 23:00:00 5,1 3,9 4,7 4,6 4,8 6,1 31 17 55 30 SW 994,8 10 0 0,0
16.01.2019 22:00:00 5,4 4,2 4,9 4,7 4,8 6,1 32 18 51 28 SW 995,6 10 0 0,1
16.01.2019 21:00:00 5,4 4,7 5,0 4,9 4,8 6,1 32 17 53 28 SW 996,3 4,5 0 0,0
16.01.2019 20:00:00 5,6 4,7 5,2 5,0 4,9 6,1 32 18 47 26 SW 996,8 12 0 0,0
16.01.2019 19:00:00 5,7 5,0 5,3 5,1 4,9 6,1 29 15 45 24 SW 997,5 11 0 0,0
16.01.2019 18:00:00 6,0 5,4 5,6 5,2 4,9 6,1 31 17 44 24 SW 998,2 8 0 0,2
16.01.2019 17:00:00 6,2 5,5 5,8 5,4 4,8 6,1 29 15 46 25 SW 998,9 11 0 0,2
16.01.2019 16:00:00 6,3 6,0 6,1 5,5 4,8 6,1 25 13 42 23 SW 999,2 6 0 0,3
16.01.2019 15:00:00 6,2 5,9 6,0 5,6 4,7 6,1 23 13 36 19 SW 999,5 2,8 0 0,1
16.01.2019 14:00:00 6,4 5,6 6,3 5,6 4,7 6,1 24 13 38 21 SW 1000,2 5 0 0,0
16.01.2019 13:00:00 6,4 5,1 6,1 5,3 4,6 6,1 22 12 42 23 WSW 1000,9 16 0 0,0
16.01.2019 12:00:00 6,9 5,0 6,9 5,5 4,5 6,1 32 17 44 24 WSW 1001,6 21 0 0,0
16.01.2019 11:00:00 6,6 5,0 6,3 5,1 4,5 6,1 26 14 37 20 WSW 1002,2 20 0 0,0
16.01.2019 10:00:00 6,5 5,0 5,9 4,9 4,5 6,1 29 15 38 20 WSW 1002,6 15 0 0,0
16.01.2019 09:00:00 6,3 4,9 5,7 4,8 4,4 6,1 27 15 38 20 WSW 1002,9 13 0 0,0
16.01.2019 08:00:00 6,1 4,9 5,5 4,8 4,4 6,1 29 16 39 21 WSW 1002,9 13 0 0,0
16.01.2019 07:00:00 6,1 4,9 5,6 4,8 4,4 6,1 31 17 42 23 WSW 1003,2 14 0 0,0
16.01.2019 06:00:00 6,2 4,9 5,6 4,8 4,4 6,1 35 19 51 27 WSW 1003,7 16 0 0,0
16.01.2019 05:00:00 6,2 4,8 5,6 4,8 4,4 6,1 42 23 53 29 WSW 1003,8 15 0 0,0
16.01.2019 04:00:00 6,2 4,9 5,7 4,8 4,3 6,1 43 23 52 28 W 1004,1 15 0 0,0
16.01.2019 03:00:00 6,2 5,0 5,6 4,8 4,3 6,1 44 24 60 33 W 1004,2 13 0 0,0
16.01.2019 02:00:00 6,1 5,1 5,6 4,8 4,3 6,1 45 24 54 29 W 1004,2 14 0 0,0
16.01.2019 01:00:00 5,9 5,7 5,7 4,9 4,2 6,1 40 22 50 27 W 1004,2 10 0 0,5
16.01.2019 00:00:00 5,8 5,5 5,5 4,8 4,2 6,1 32 17 52 28 W 1004,4 2,8 0 0,2
15.01.2019 23:00:00 5,7 5,1 5,4 4,7 4,1 6,1 33 18 49 26 W 1004,6 12 0 0,0
15.01.2019 22:00:00 6,0 5,3 5,6 4,7 4,1 6,1 41 22 50 27 W 1004,4 13 0 0,1
15.01.2019 21:00:00 6,0 5,2 5,5 4,6 4,1 6,1 39 21 46 25 W 1004,3 12 0 0,0
15.01.2019 20:00:00 5,9 4,9 5,3 4,5 4,0 6,1 39 21 50 27 W 1004,0 13 0 0,0
15.01.2019 19:00:00 6,1 5,0 5,5 4,5 4,0 6,1 40 21 51 28 W 1003,7 13 0 0,0
15.01.2019 18:00:00 6,2 5,1 5,6 4,6 3,9 6,1 44 24 59 32 W 1003,2 14 0 0,0
15.01.2019 17:00:00 6,0 5,6 5,7 4,8 3,8 6,1 49 26 63 34 W 1003,1 13 0 0,2

tt = Température de l'air
td = dewpoint
tt 5cm = Température de l'air 5cm
tt -5cm = Température de l'air -5cm
tt -20cm = Température de l'air -20cm
tt -100cm = Température de l'air -100cm
ff = Vitesse du vent
fx = gusts
dd = Direction du vent
ppp = reduced air pressure
vv = visibility
sd = Ensoleillement
rr = Quantités de précipitations

stations d'obs. à proximité